Location: ????? ????
(37.9717°N, 23.4051°E)
Time: 06:03:52
(UTC+00:00)

Cosmos 1763 Rocket - Visible Passes

Search period start: 16 July 2024 00:00
Search period end: 26 July 2024 00:00
Orbit: 730 x 777 km, 74.0° (Epoch: 15 July)

Date Brightness Start Highest point End Pass type
(mag) Time Alt. Az. Time Alt. Az. Time Alt. Az.
16 Jul 5.1 02:01:30 10° SSE 02:06:09 32° E 02:10:46 10° NE visible
17 Jul 6.0 01:21:50 10° SE 01:25:05 17° E 01:28:19 10° ENE visible
18 Jul 3.6 02:19:42 10° SSW 02:24:58 81° ESE 02:30:12 10° NNE visible
19 Jul 4.6 01:38:52 10° S 01:43:43 41° ESE 01:48:36 10° NNE visible
20 Jul 5.5 00:58:46 10° SE 01:02:36 21° E 01:06:29 10° NE visible
20 Jul 4.1 02:39:05 10° SW 02:44:01 41° WNW 02:48:57 10° N visible
21 Jul 6.1 00:20:43 10° ESE 00:21:37 10° E 00:22:29 10° E visible
21 Jul 3.5 01:58:36 18° SSW 02:02:35 79° WNW 02:07:50 10° NNE visible
22 Jul 4.0 01:18:25 25° S 01:21:18 53° ESE 01:26:22 10° NNE visible
23 Jul 5.1 00:38:11 22° SE 00:40:08 27° E 00:44:29 10° NE visible
23 Jul 4.4 02:18:10 16° WSW 02:21:43 32° WNW 02:26:23 10° N visible
23 Jul 5.8 23:57:54 13° ESE 23:59:05 14° E 00:01:42 10° ENE visible
24 Jul 3.6 01:37:52 32° SW 01:40:14 62° WNW 01:45:23 10° N visible
25 Jul 3.6 00:57:33 49° S 00:58:53 69° ESE 01:04:03 10° NNE visible
25 Jul 5.4 02:38:21 10° W 02:41:08 14° WNW 02:43:54 10° NNW visible
